Belmar-Farmingdale, NJ

4:43 AM EDT on April 23, 2018 (GMT -0400)
Allaire

Weather History for KBLM - July, 2012

Change the Weather History Date:

Thursday, July 5, 2012

  Actual Average Record
Temperature  
Mean Temperature 84 °F -  
Max Temperature 93 °F 80 °F 98 °F (1999)
Min Temperature 75 °F 63 °F 60 °F (2014)
Cooling Degree Days 19    
Growing Degree Days 34 (Base 50)    
Moisture  
Dew Point 66 °F    
Average Humidity 57    
Maximum Humidity 83    
Minimum Humidity 34    
Precipitation  
Precipitation 0.00 in - - ()
Sea Level Pressure  
Sea Level Pressure 29.79 in    
Wind  
Wind Speed 8 mph (NW)    
Max Wind Speed 16 mph    
Max Gust Speed 22 mph    
Visibility 10 miles    
Events      
Averages and records for this station are not official NWS values.
T = Trace of Precipitation, MM = Missing Value Source: NWS Daily Summary

Daily Weather History Graph

Daily Weather History Graph

Search for Another Location

Airport or City:

Astronomy

Jul. 05, 2012 Rise Set
Actual Time 5:33 AM EDT 8:28 PM EDT
Civil Twilight 5:00 AM EDT 9:01 PM EDT
Nautical Twilight 4:19 AM EDT 9:42 PM EDT
Astronomical Twilight 3:31 AM EDT 10:30 PM EDT
Moon 9:43 PM EDT (7/5) 7:42 AM EDT (7/5)
Length of Visible Light 16h 00m
Length of Day
14h 55m
Waning Gibbous, 95% of the Moon is Illuminated
Jul 5
Waning Gibbous
Jul 10
Last Quarter
Jul 19
New
Jul 26
First Quarter
Aug 1
Full

Hourly Weather History & Observations

Time (EDT) Temp. Heat Index Dew Point Humidity Pressure Visibility Wind Dir Wind Speed Gust Speed Precip Events Conditions
12:35 AM 77.0 °F - 69.8 °F 78% 29.79 in 10.0 mi WSW 8.1 mph - N/A   Clear
12:55 AM 78.8 °F - 69.8 °F 74% 29.79 in 10.0 mi West 12.7 mph 17.3 mph N/A   Clear
1:15 AM 78.8 °F - 68.0 °F 69% 29.78 in 10.0 mi West 9.2 mph - N/A   Clear
1:35 AM 78.8 °F - 68.0 °F 69% 29.79 in 10.0 mi West 9.2 mph - N/A   Clear
1:55 AM 78.8 °F - 66.2 °F 65% 29.77 in 10.0 mi West 8.1 mph - N/A   Clear
2:15 AM 77.0 °F - 66.2 °F 69% 29.76 in 10.0 mi West 6.9 mph - N/A   Clear
2:35 AM 75.2 °F - 68.0 °F 78% 29.75 in 10.0 mi WNW 8.1 mph - N/A   Clear
2:55 AM 75.2 °F - 68.0 °F 78% 29.75 in 10.0 mi West 10.4 mph - N/A   Clear
3:15 AM 75.2 °F - 68.0 °F 78% 29.75 in 10.0 mi West 8.1 mph - N/A   Clear
3:35 AM 75.2 °F - 68.0 °F 78% 29.74 in 10.0 mi West 6.9 mph - N/A   Clear
3:55 AM 75.2 °F - 68.0 °F 78% 29.75 in 10.0 mi West 5.8 mph - N/A   Clear
4:15 AM 75.2 °F - 68.0 °F 78% 29.74 in 10.0 mi West 5.8 mph - N/A   Clear
4:35 AM 75.2 °F - 69.8 °F 83% 29.74 in 10.0 mi WNW 5.8 mph - N/A   Clear
4:55 AM 75.2 °F - 69.8 °F 83% 29.75 in 10.0 mi West 5.8 mph - N/A   Clear
5:15 AM 75.2 °F - 69.8 °F 83% 29.75 in 10.0 mi WNW 3.5 mph - N/A   Clear
5:35 AM 75.2 °F - 69.8 °F 83% 29.76 in 10.0 mi WNW 4.6 mph - N/A   Clear
5:55 AM 75.2 °F - 69.8 °F 83% 29.77 in 10.0 mi Calm Calm - N/A   Clear
6:15 AM 75.2 °F - 69.8 °F 83% 29.77 in 10.0 mi West 4.6 mph - N/A   Clear
6:35 AM 75.2 °F - 69.8 °F 83% 29.78 in 10.0 mi West 5.8 mph - N/A   Clear
6:55 AM 77.0 °F - 69.8 °F 78% 29.78 in 10.0 mi West 4.6 mph - N/A   Clear
7:15 AM 78.8 °F - 69.8 °F 74% 29.78 in 10.0 mi WNW 4.6 mph - N/A   Clear
7:35 AM 78.8 °F - 71.6 °F 78% 29.78 in 10.0 mi NW 5.8 mph - N/A   Clear
7:55 AM 80.6 °F 84.6 °F 71.6 °F 74% 29.79 in 10.0 mi WNW 5.8 mph - N/A   Clear
8:15 AM 82.4 °F 87.2 °F 71.6 °F 70% 29.79 in 10.0 mi WNW 6.9 mph - N/A   Clear
8:35 AM 84.2 °F 89.6 °F 71.6 °F 66% 29.79 in 10.0 mi WNW 8.1 mph - N/A   Clear
8:55 AM 84.2 °F 89.6 °F 71.6 °F 66% 29.80 in 10.0 mi WNW 8.1 mph - N/A   Clear
9:15 AM 86.0 °F 91.8 °F 71.6 °F 62% 29.80 in 9.0 mi WNW 10.4 mph - N/A   Clear
9:35 AM 87.8 °F 93.8 °F 71.6 °F 58% 29.80 in 10.0 mi WNW 9.2 mph - N/A   Clear
9:55 AM 87.8 °F 92.6 °F 69.8 °F 55% 29.80 in 10.0 mi NNW 15.0 mph - N/A   Clear
10:15 AM 89.6 °F 92.2 °F 66.2 °F 46% 29.80 in 10.0 mi NNW 15.0 mph 19.6 mph N/A   Clear
10:35 AM 89.6 °F 92.2 °F 66.2 °F 46% 29.80 in 10.0 mi NNW 10.4 mph 16.1 mph N/A   Clear
10:55 AM 91.4 °F 93.2 °F 64.4 °F 41% 29.80 in 10.0 mi NW 15.0 mph 20.7 mph N/A   Clear
11:15 AM 91.4 °F 93.2 °F 64.4 °F 41% 29.79 in 10.0 mi NNW 16.1 mph - N/A   Partly Cloudy
11:35 AM 91.4 °F 93.2 °F 64.4 °F 41% 29.80 in 10.0 mi North 12.7 mph 21.9 mph N/A   Partly Cloudy
11:55 AM 91.4 °F 94.0 °F 66.2 °F 43% 29.80 in 10.0 mi WNW 13.8 mph - N/A   Scattered Clouds
12:15 PM 91.4 °F 94.0 °F 66.2 °F 43% 29.80 in 10.0 mi NW 9.2 mph 17.3 mph N/A   Mostly Cloudy
12:35 PM 91.4 °F 93.2 °F 64.4 °F 41% 29.80 in 10.0 mi NW 15.0 mph - N/A   Scattered Clouds
12:55 PM 93.2 °F 94.9 °F 64.4 °F 38% 29.80 in 10.0 mi NW 12.7 mph - N/A   Clear
1:15 PM 93.2 °F 94.1 °F 62.6 °F 36% 29.79 in 10.0 mi NNW 9.2 mph - N/A   Clear
1:35 PM 93.2 °F 94.1 °F 62.6 °F 36% 29.80 in 10.0 mi WNW 10.4 mph 18.4 mph N/A   Clear
1:55 PM 93.2 °F 93.3 °F 60.8 °F 34% 29.80 in 10.0 mi WNW 10.4 mph - N/A   Clear
2:15 PM 93.2 °F 94.1 °F 62.6 °F 36% 29.80 in 10.0 mi NNW 9.2 mph - N/A   Clear
2:35 PM 93.2 °F 94.1 °F 62.6 °F 36% 29.79 in 10.0 mi NW 11.5 mph - N/A   Clear
2:55 PM 93.2 °F 93.3 °F 60.8 °F 34% 29.79 in 10.0 mi NW 9.2 mph - N/A   Clear
3:15 PM 93.2 °F 94.1 °F 62.6 °F 36% 29.79 in 10.0 mi NW 6.9 mph - N/A   Clear
3:35 PM 93.2 °F 94.9 °F 64.4 °F 38% 29.80 in 10.0 mi NW 11.5 mph - N/A   Clear
3:55 PM 93.2 °F 94.1 °F 62.6 °F 36% 29.79 in 10.0 mi NW 9.2 mph - N/A   Clear
4:15 PM 93.2 °F 94.1 °F 62.6 °F 36% 29.79 in 10.0 mi West 9.2 mph - N/A   Clear
4:35 PM 93.2 °F 94.9 °F 64.4 °F 38% 29.79 in 10.0 mi WNW 8.1 mph - N/A   Clear
4:55 PM 93.2 °F 94.9 °F 64.4 °F 38% 29.79 in 10.0 mi West 6.9 mph - N/A   Clear
5:15 PM 93.2 °F 94.9 °F 64.4 °F 38% 29.79 in 10.0 mi WNW 10.4 mph - N/A   Clear
5:35 PM 93.2 °F 94.9 °F 64.4 °F 38% 29.79 in 10.0 mi WNW 8.1 mph - N/A   Clear
5:55 PM 93.2 °F 94.9 °F 64.4 °F 38% 29.78 in 10.0 mi WNW 8.1 mph - N/A   Clear
6:35 PM 93.2 °F 94.1 °F 62.6 °F 36% 29.79 in 10.0 mi WNW 9.2 mph - N/A   Clear
6:55 PM 91.4 °F 92.1 °F 62.6 °F 38% 29.79 in 10.0 mi WNW 8.1 mph - N/A   Clear
7:15 PM 91.4 °F 92.1 °F 62.6 °F 38% 29.80 in 10.0 mi NW 8.1 mph - N/A   Clear
7:35 PM 89.6 °F 90.1 °F 62.6 °F 40% 29.80 in 10.0 mi NW 5.8 mph - N/A   Clear
7:55 PM 87.8 °F 89.4 °F 64.4 °F 46% 29.80 in 10.0 mi North 3.5 mph - N/A   Clear
8:15 PM 87.8 °F 89.4 °F 64.4 °F 46% 29.81 in 10.0 mi North 3.5 mph - N/A   Clear
8:35 PM 86.0 °F 87.3 °F 64.4 °F 48% 29.82 in 10.0 mi NNW 4.6 mph - N/A   Clear
8:55 PM 84.2 °F 85.6 °F 64.4 °F 51% 29.83 in 10.0 mi NNW 3.5 mph - N/A   Clear
9:15 PM 84.2 °F 85.0 °F 62.6 °F 48% 29.84 in 10.0 mi NNW 8.1 mph - N/A   Clear
9:35 PM 82.4 °F 83.4 °F 62.6 °F 51% 29.84 in 10.0 mi NNW 5.8 mph - N/A   Clear
9:55 PM 80.6 °F 81.8 °F 62.6 °F 54% 29.84 in 10.0 mi NNW 5.8 mph - N/A   Clear
10:15 PM 80.6 °F 81.8 °F 62.6 °F 54% 29.85 in 10.0 mi NNE 8.1 mph - N/A   Clear
10:35 PM 78.8 °F - 62.6 °F 57% 29.86 in 10.0 mi NNE 4.6 mph - N/A   Clear
10:55 PM 78.8 °F - 66.2 °F 65% 29.86 in 10.0 mi NNE 4.6 mph - N/A   Clear
11:15 PM 78.8 °F - 66.2 °F 65% 29.86 in 10.0 mi NE 4.6 mph - N/A   Clear
11:35 PM 77.0 °F - 66.2 °F 69% 29.87 in 10.0 mi NNE 4.6 mph - N/A   Clear
11:55 PM 77.0 °F - 66.2 °F 69% 29.87 in 10.0 mi NNE 3.5 mph - N/A   Clear